Tracking 30970 objects as of 3-Jul-2025
HD Live streaming from Space Station
objects crossing your sky now

STARLINK-6258

Track STARLINK-6258 now!
10-day predictions
STARLINK-6258 is classified as:


NORAD ID: 56413
Int'l Code: 2023-061AR
Perigee: 565.8 km
Apogee: 566.7 km
Inclination: 43.0 °
Period: 95.8 minutes
Semi major axis: 6937 km
RCS: Unknown
Launch date: May 4, 2023
Source: United States (US)
Launch site: AIR FORCE EASTERN TEST RANGE (AFETR)
Your satellite tracking list
Your tracking list is empty




NASA's NSSDC Master Catalog

Two Line Element Set (TLE):
1 56413U 23061AR  25183.18771679  .00000336  00000-0  39910-4 0  9994
2 56413  43.0042 105.5380 0000638 238.0606 122.0175 15.02534614119514
Source of the keplerian elements: AFSPC